DLH25 EDDV-EDXW

Flight info

Callsign DLH25
Flight time 0h 37m
Altitude 23000
Route NIE1S NIE Z595 YEFAW Y850 MUBZI M105 OMWEG/N0379F220 DCT BADOS DCT OLDIP
Aircraft A321/M-SDE3FGHIRWY/LB1

Departure

Time 2026-03-26 10:19
Airport Hannover Airport (EDDV)

Arrival

Time 2026-03-26 10:56
Airport Westerland Sylt Airport (EDXW)
Time Latitude Longitude Altitude Speed Heading
2026-03-26 09:36 52.45877 9.69248 178 ft 0 kts 92°
2026-03-26 10:02 52.45877 9.69228 178 ft 3 kts 92°
2026-03-26 10:03 52.45878 9.69203 178 ft 1 kts 92°
2026-03-26 10:03 52.45877 9.69175 178 ft 3 kts 72°
2026-03-26 10:03 52.45870 9.69153 177 ft 3 kts 17°
2026-03-26 10:03 52.45854 9.69155 177 ft 3 kts 334°
2026-03-26 10:04 52.45837 9.69171 178 ft 3 kts 325°
2026-03-26 10:04 52.45823 9.69186 178 ft 1 kts 325°
2026-03-26 10:04 52.45812 9.69199 178 ft 3 kts 325°
2026-03-26 10:04 52.45802 9.69210 178 ft 0 kts 325°
2026-03-26 10:09 52.45803 9.69209 178 ft 1 kts 325°
2026-03-26 10:10 52.45813 9.69198 178 ft 3 kts 325°
2026-03-26 10:10 52.45837 9.69171 178 ft 6 kts 325°
2026-03-26 10:10 52.45878 9.69120 177 ft 9 kts 323°
2026-03-26 10:10 52.45930 9.69056 178 ft 10 kts 323°
2026-03-26 10:11 52.45988 9.68984 177 ft 12 kts 323°
2026-03-26 10:11 52.46059 9.68896 178 ft 13 kts 322°
2026-03-26 10:11 52.46130 9.68807 179 ft 13 kts 321°
2026-03-26 10:11 52.46206 9.68737 180 ft 13 kts 359°
2026-03-26 10:12 52.46266 9.68834 181 ft 13 kts 64°
2026-03-26 10:12 52.46303 9.68976 182 ft 14 kts 71°
2026-03-26 10:12 52.46336 9.69123 182 ft 14 kts 69°
2026-03-26 10:12 52.46374 9.69284 182 ft 16 kts 69°
2026-03-26 10:13 52.46415 9.69455 182 ft 17 kts 68°
2026-03-26 10:13 52.46461 9.69649 179 ft 20 kts 69°
2026-03-26 10:13 52.46510 9.69852 176 ft 17 kts 65°
2026-03-26 10:13 52.46575 9.69947 175 ft 4 kts
2026-03-26 10:14 52.46589 9.69948 176 ft 0 kts
2026-03-26 10:17 52.46592 9.69948 176 ft 3 kts
2026-03-26 10:17 52.46617 9.69950 177 ft 5 kts
2026-03-26 10:18 52.46669 9.69954 179 ft 9 kts
2026-03-26 10:18 52.46700 9.69846 178 ft 17 kts 274°
2026-03-26 10:18 52.46714 9.69358 178 ft 78 kts 272°
2026-03-26 10:18 52.46749 9.68107 182 ft 139 kts 272°
2026-03-26 10:19 52.46802 9.66303 403 ft 170 kts 273°
2026-03-26 10:19 52.46863 9.64390 1291 ft 167 kts 276°
2026-03-26 10:19 52.47022 9.62483 1814 ft 176 kts 293°
2026-03-26 10:19 52.47825 9.60846 2068 ft 197 kts 318°
2026-03-26 10:20 52.48913 9.59234 2334 ft 224 kts 316°
2026-03-26 10:20 52.50070 9.57412 2985 ft 233 kts 315°
2026-03-26 10:20 52.51235 9.55524 3727 ft 239 kts 315°
2026-03-26 10:20 52.52418 9.53604 3952 ft 240 kts 315°
2026-03-26 10:21 52.53603 9.51687 3999 ft 239 kts 315°
2026-03-26 10:21 52.54789 9.49778 4004 ft 239 kts 315°
2026-03-26 10:21 52.55980 9.47856 4006 ft 239 kts 315°
2026-03-26 10:21 52.57165 9.45945 4007 ft 239 kts 315°
2026-03-26 10:22 52.58336 9.44057 4007 ft 238 kts 315°
2026-03-26 10:22 52.59523 9.42147 4005 ft 239 kts 315°
2026-03-26 10:22 52.60712 9.40234 4005 ft 239 kts 315°
2026-03-26 10:22 52.61900 9.38323 4005 ft 239 kts 315°
2026-03-26 10:23 52.63129 9.36482 3996 ft 239 kts 320°
2026-03-26 10:23 52.64421 9.34765 4005 ft 239 kts 320°
2026-03-26 10:23 52.65728 9.33016 4601 ft 242 kts 320°
2026-03-26 10:23 52.67027 9.31272 5573 ft 242 kts 320°
2026-03-26 10:24 52.68338 9.29505 6424 ft 245 kts 320°
2026-03-26 10:24 52.69665 9.27719 7194 ft 248 kts 320°
2026-03-26 10:24 52.71016 9.25901 7973 ft 252 kts 320°
2026-03-26 10:24 52.72382 9.24061 8734 ft 256 kts 320°
2026-03-26 10:25 52.73764 9.22196 9534 ft 258 kts 319°
2026-03-26 10:25 52.75169 9.20297 10183 ft 266 kts 319°
2026-03-26 10:25 52.76659 9.18273 10393 ft 289 kts 319°
2026-03-26 10:25 52.78273 9.16079 10565 ft 310 kts 319°
2026-03-26 10:26 52.79965 9.13783 11078 ft 318 kts 319°
2026-03-26 10:26 52.81690 9.11448 11681 ft 323 kts 320°
2026-03-26 10:26 52.83442 9.09077 12331 ft 327 kts 318°
2026-03-26 10:26 52.85211 9.06677 13028 ft 330 kts 319°
2026-03-26 10:27 52.87000 9.04244 13636 ft 336 kts 319°
2026-03-26 10:27 52.88816 9.01770 14211 ft 340 kts 319°
2026-03-26 10:27 52.90654 8.99263 14832 ft 343 kts 318°
2026-03-26 10:27 52.92506 8.96742 15469 ft 345 kts 318°
2026-03-26 10:28 52.94373 8.94197 16022 ft 350 kts 318°
2026-03-26 10:28 52.96259 8.91616 16655 ft 352 kts 319°
2026-03-26 10:28 52.98160 8.89006 17213 ft 357 kts 318°
2026-03-26 10:28 53.00080 8.86369 17834 ft 359 kts 319°
2026-03-26 10:29 53.02160 8.83988 18284 ft 368 kts 330°
2026-03-26 10:29 53.04546 8.82371 18744 ft 374 kts 343°
2026-03-26 10:29 53.07121 8.81598 19200 ft 379 kts 353°
2026-03-26 10:29 53.09770 8.81747 19703 ft 384 kts
2026-03-26 10:30 53.12419 8.82364 20220 ft 386 kts
2026-03-26 10:30 53.15084 8.82982 20712 ft 388 kts
2026-03-26 10:30 53.17762 8.83597 21216 ft 389 kts
2026-03-26 10:30 53.20460 8.84211 21693 ft 391 kts
2026-03-26 10:31 53.23134 8.84818 22159 ft 393 kts
2026-03-26 10:31 53.25850 8.85436 22660 ft 395 kts
2026-03-26 10:31 53.28583 8.86061 22913 ft 397 kts
2026-03-26 10:31 53.31320 8.86692 22946 ft 397 kts
2026-03-26 10:32 53.34037 8.87435 22939 ft 396 kts 11°
2026-03-26 10:32 53.36667 8.88837 22931 ft 398 kts 20°
2026-03-26 10:32 53.39222 8.90658 22929 ft 398 kts 21°
2026-03-26 10:32 53.41768 8.92474 22927 ft 399 kts 22°
2026-03-26 10:33 53.44326 8.94295 22918 ft 399 kts 22°
2026-03-26 10:33 53.46885 8.96117 22923 ft 399 kts 22°
2026-03-26 10:33 53.49443 8.97937 22926 ft 400 kts 21°
2026-03-26 10:33 53.52003 8.99760 22919 ft 399 kts 22°
2026-03-26 10:34 53.54481 9.01881 22923 ft 401 kts 31°
2026-03-26 10:34 53.56779 9.04553 22927 ft 402 kts 33°
2026-03-26 10:34 53.59053 9.07282 22928 ft 402 kts 34°
2026-03-26 10:34 53.61332 9.10010 22922 ft 402 kts 33°
2026-03-26 10:35 53.63612 9.12736 22922 ft 402 kts 34°
2026-03-26 10:35 53.65893 9.15466 22926 ft 403 kts 33°
2026-03-26 10:35 53.68182 9.18209 22919 ft 404 kts 33°
2026-03-26 10:35 53.70481 9.20968 22451 ft 407 kts 34°
2026-03-26 10:36 53.72788 9.23744 21913 ft 400 kts 34°
2026-03-26 10:36 53.74985 9.26403 21616 ft 378 kts 33°
2026-03-26 10:36 53.77123 9.28992 21342 ft 378 kts 33°
2026-03-26 10:36 53.79269 9.31584 21067 ft 378 kts 34°
2026-03-26 10:37 53.81443 9.34069 20793 ft 375 kts 27°
2026-03-26 10:37 53.83736 9.36031 20526 ft 373 kts 23°
2026-03-26 10:37 53.86105 9.37951 20257 ft 372 kts 24°
2026-03-26 10:37 53.88411 9.39827 20004 ft 373 kts 24°
2026-03-26 10:38 53.90744 9.41738 19739 ft 372 kts 23°
2026-03-26 10:38 53.93072 9.43650 19474 ft 372 kts 23°
2026-03-26 10:38 53.95407 9.45534 19219 ft 371 kts 21°
2026-03-26 10:38 53.97860 9.46778 18956 ft 366 kts
2026-03-26 10:39 54.00387 9.47085 18700 ft 363 kts 354°
2026-03-26 10:39 54.02873 9.46476 18452 ft 359 kts 341°
2026-03-26 10:39 54.05200 9.45021 18201 ft 356 kts 332°
2026-03-26 10:39 54.07353 9.42958 17922 ft 354 kts 327°
2026-03-26 10:40 54.09477 9.40860 17625 ft 352 kts 328°
2026-03-26 10:40 54.11586 9.38780 17350 ft 349 kts 327°
2026-03-26 10:40 54.13678 9.36718 17084 ft 346 kts 327°
2026-03-26 10:40 54.15772 9.34649 16806 ft 347 kts 327°
2026-03-26 10:41 54.17845 9.32606 16508 ft 340 kts 327°
2026-03-26 10:41 54.19873 9.30610 16084 ft 333 kts 327°
2026-03-26 10:41 54.21860 9.28647 15656 ft 327 kts 326°
2026-03-26 10:41 54.23814 9.26709 15231 ft 322 kts 327°
2026-03-26 10:42 54.25736 9.24801 14821 ft 316 kts 326°
2026-03-26 10:42 54.27624 9.22921 14411 ft 311 kts 326°
2026-03-26 10:42 54.29480 9.21067 14005 ft 307 kts 326°
2026-03-26 10:43 54.33116 9.17427 13171 ft 299 kts 327°
2026-03-26 10:43 54.34905 9.15631 12773 ft 296 kts 326°
2026-03-26 10:43 54.36649 9.13802 12380 ft 291 kts 321°
2026-03-26 10:43 54.38165 9.11554 11975 ft 286 kts 311°
2026-03-26 10:44 54.39540 9.09163 11577 ft 282 kts 312°
2026-03-26 10:44 54.40906 9.06790 11190 ft 277 kts 312°
2026-03-26 10:44 54.42256 9.04448 10802 ft 275 kts 312°
2026-03-26 10:44 54.43594 9.02122 10418 ft 272 kts 312°
2026-03-26 10:45 54.44903 8.99853 10193 ft 262 kts 312°
2026-03-26 10:45 54.46167 8.97657 10105 ft 257 kts 312°
2026-03-26 10:45 54.47421 8.95472 10045 ft 256 kts 311°
2026-03-26 10:45 54.48666 8.93299 9979 ft 256 kts 312°
2026-03-26 10:46 54.49917 8.91118 9921 ft 256 kts 312°
2026-03-26 10:46 54.51173 8.88927 9592 ft 256 kts 312°
2026-03-26 10:46 54.52421 8.86750 9244 ft 254 kts 313°
2026-03-26 10:46 54.53655 8.84593 8905 ft 251 kts 312°
2026-03-26 10:47 54.54871 8.82465 8582 ft 248 kts 313°
2026-03-26 10:47 54.56075 8.80361 8259 ft 246 kts 313°
2026-03-26 10:47 54.57272 8.78259 7939 ft 245 kts 313°
2026-03-26 10:47 54.58459 8.76172 7622 ft 243 kts 313°
2026-03-26 10:48 54.59622 8.74128 7310 ft 239 kts 313°
2026-03-26 10:48 54.60784 8.72086 7003 ft 237 kts 313°
2026-03-26 10:48 54.61975 8.70120 6687 ft 237 kts 321°
2026-03-26 10:48 54.63320 8.68469 6376 ft 237 kts 323°
2026-03-26 10:49 54.64668 8.66833 6044 ft 235 kts 323°
2026-03-26 10:49 54.65994 8.65220 5731 ft 230 kts 323°
2026-03-26 10:49 54.67289 8.63638 5445 ft 225 kts 323°
2026-03-26 10:49 54.68557 8.62088 5155 ft 221 kts 323°
2026-03-26 10:50 54.69800 8.60565 4870 ft 217 kts 323°
2026-03-26 10:50 54.71019 8.59074 4600 ft 213 kts 323°
2026-03-26 10:50 54.72221 8.57604 4307 ft 209 kts 323°
2026-03-26 10:50 54.73394 8.56167 4033 ft 204 kts 323°
2026-03-26 10:51 54.74528 8.54777 3778 ft 196 kts 323°
2026-03-26 10:51 54.75619 8.53441 3519 ft 188 kts 323°
2026-03-26 10:51 54.76665 8.52159 3271 ft 180 kts 323°
2026-03-26 10:51 54.77680 8.50914 3029 ft 178 kts 323°
2026-03-26 10:52 54.78658 8.49718 2809 ft 163 kts 322°
2026-03-26 10:52 54.79535 8.48645 2603 ft 146 kts 322°
2026-03-26 10:52 54.80334 8.47667 2420 ft 137 kts 321°
2026-03-26 10:52 54.81105 8.46716 2238 ft 135 kts 321°
2026-03-26 10:53 54.81861 8.45781 2062 ft 133 kts 321°
2026-03-26 10:53 54.82612 8.44852 1907 ft 132 kts 321°
2026-03-26 10:53 54.83360 8.43926 1719 ft 131 kts 321°
2026-03-26 10:53 54.84108 8.43001 1535 ft 132 kts 321°
2026-03-26 10:54 54.84852 8.42081 1369 ft 131 kts 321°
2026-03-26 10:54 54.85598 8.41156 1187 ft 131 kts 321°
2026-03-26 10:54 54.86344 8.40232 1007 ft 132 kts 321°
2026-03-26 10:54 54.87089 8.39311 824 ft 131 kts 320°
2026-03-26 10:55 54.87820 8.38408 667 ft 130 kts 320°
2026-03-26 10:55 54.88570 8.37479 478 ft 134 kts 320°
2026-03-26 10:55 54.89320 8.36560 323 ft 129 kts 320°
2026-03-26 10:55 54.90043 8.35655 151 ft 126 kts 317°
2026-03-26 10:56 54.90751 8.34770 42 ft 118 kts 320°
2026-03-26 10:56 54.91293 8.34081 43 ft 72 kts 324°
2026-03-26 10:56 54.91581 8.33727 45 ft 39 kts 323°
2026-03-26 10:56 54.91776 8.33485 45 ft 26 kts 325°
2026-03-26 10:57 54.91893 8.33351 42 ft 15 kts 342°
2026-03-26 10:57 54.91957 8.33455 40 ft 16 kts 86°
2026-03-26 10:57 54.91965 8.33664 41 ft 17 kts 86°
2026-03-26 10:57 54.91975 8.33863 44 ft 16 kts 84°
2026-03-26 10:58 54.91987 8.34215 52 ft 13 kts 88°
2026-03-26 10:58 54.91995 8.34321 53 ft 13 kts 79°
2026-03-26 10:58 54.92015 8.34457 53 ft 9 kts 75°
2026-03-26 10:59 54.92011 8.34499 52 ft 0 kts 115°